Regional Weather Roundup
Issued by NWS Cleveland, OH

Home | Current Version | Previous Version | Graphics & Text | Print | Product List | Glossary On
Versions: 1 2 3 4 5 6 7 8 9 10 11 12 13 14 15 16 17 18 19 20 21 22 23 24 25 26 27 28 29 30 31 32 33 34 35 36 37 38 39 40 41 42 43 44 45 46 47 48 49 50
000
ASUS41 KCLE 060500
RWRCLE
OHIO REGIONAL WEATHER ROUNDUP
NATIONAL WEATHER SERVICE WILMINGTON, OH
100 AM EDT WED MAY 06 2015

NOTE: "FAIR" INDICATES FEW OR NO CLOUDS BELOW 12,000 FEET WITH NO
SIGNIFICANT WEATHER AND/OR OBSTRUCTIONS TO VISIBILITY.

OHZ001>008-015>018-024>027-034-035-043-044-060600-
   NORTHWEST OHIO

CITY           SKY/WX    TMP DP  RH WIND       PRES   REMARKS
DEFIANCE       CLOUDY    53  50  89 NW8       30.27R FOG
FINDLAY        FOG       53  52  96 E7        30.23R VSB 3/4
TOLEDO EXPRESS CLOUDY    52  50  93 E5        30.25S FOG
TOLEDO EXEC    CLOUDY    52  48  86 E10       30.26S FOG
LIMA           CLOUDY    54  53  97 E12       30.23R FOG
$$

OHZ009>014-019>023-028>033-038-089-060600-
   NORTHEAST OHIO

CITY           SKY/WX    TMP DP  RH WIND       PRES   REMARKS
CLE-HOPKINS    CLOUDY    59  57  93 CALM      30.26F FOG
CLE-LAKEFRONT  LGT RAIN  56  54  93 CALM      30.23F FOG
CUY CO. ARPT   NOT AVBL
LORAIN-ELYRIA  MOCLDY    54  52  93 CALM      30.25F FOG
ASHTABULA      LGT RAIN  53  52  96 CALM      30.26S FOG
AKRON-CANTON   CLOUDY    60  57  89 NE8       30.25R FOG
WOOSTER        NOT AVBL
MANSFIELD      MOCLDY    54  54 100 NE7       30.24S FOG
YOUNGSTOWN     MOCLDY    59  58  96 N3        30.26R FOG
$$

OHZ042-051>053-060>062-070>072-077>081-060600-
  SOUTHWEST OHIO

CITY           SKY/WX    TMP DP  RH WIND       PRES   REMARKS
CINC-COVINGTON CLEAR     62  56  80 S3        30.21S
CINC-LUNKEN    CLEAR     58  57  97 CALM      30.21S
HAMILTON       CLEAR     59  56  89 CALM      30.21S
DAYTON         NOT AVBL
WRIGHT-PAT AFB NOT AVBL
DAYTON GENERAL CLEAR     64  52  64 S5        30.20S
WILMINGTON     CLEAR     65  52  62 S3        30.21S
$$

OHZ036-037-039>041-045>050-054>059-063>069-073>076-082>088-060600-
  CENTRAL AND SOUTHEAST OHIO

CITY           SKY/WX    TMP DP  RH WIND       PRES   REMARKS
COLUMBUS       PTCLDY    61  58  90 CALM      30.20R
OSU AIRPORT    FAIR      61  56  83 NW3       30.21R
BOLTON FIELD   NOT AVBL
RICKENBACK AFB NOT AVBL
NEWARK         CLEAR     59  57  93 CALM      30.21R
MARION         CLOUDY    57  55  93 NE8       30.23R FOG
LANCASTER      CLEAR     58  53  84 CALM      30.21R
ZANESVILLE     CLEAR     60  56  86 CALM      30.21R
NEW PHILLY     FOG       60  57  89 CALM      30.24R VSB 3/4
$$


USA.gov is the U.S. government's official web portal to all federal, state and local government web resources and services.